Regional Weather Roundup
Issued by NWS Northern Indiana

Home | Current Version | Previous Version | Graphics & Text | Print | Product List | Glossary On
Versions: 1 2 3 4 5 6 7 8 9 10 11 12 13 14 15 16 17 18 19 20 21 22 23 24 25 26 27 28 29 30 31 32 33 34 35 36 37 38 39 40 41 42 43 44 45 46 47 48 49 50
000
ASUS43 KIWX 111100
RWRIWX

KIWX WEATHER ROUNDUP
NATIONAL WEATHER SERVICE NORTHERN INDIANA
600 AM EST MON DEC 11 2017

NOTE: "FAIR" INDICATES FEW OR NO CLOUDS BELOW 12,000 FEET WITH NO
SIGNIFICANT WEATHER AND/OR OBSTRUCTIONS TO VISIBILITY.

* THESE STATIONS ARE NOT UNDER NWS QUALITY CONTROL. THEY ALSO MAY NOT
  REPORT WEATHER SUCH AS PRECIPITATION OR FOG.

INZ001>027-111200-
NORTHERN INDIANA

CITY           SKY/WX    TMP DP  RH WIND       PRES   REMARKS
GARY*          CLOUDY    27  19  74 CALM      30.04R
MICHIGAN CITY* CLOUDY    28  19  69 SW6       30.03R WCI  22
SOUTH BEND     CLOUDY    25  21  85 SW8       30.02R WCI  16
GOSHEN         CLOUDY    26  21  81 S6        30.00F WCI  19
MONTICELLO*    CLOUDY    23  20  85 S3        30.04R
FORT WAYNE     CLOUDY    23  20  88 SW8       30.04S WCI  14
PERU/GRISSOM   CLOUDY    22  21  96 S6        30.03F WCI  15

$$
INZ028>050-111200-
CENTRAL INDIANA

CITY           SKY/WX    TMP DP  RH WIND       PRES   REMARKS
LAFAYETTE      CLOUDY    22  21  96 W3        30.07R
KOKOMO*        CLOUDY    21  19  92 S5        30.05S WCI  15
MUNCIE*        CLOUDY    24  19  81 S5        30.05R WCI  18
INDIANAPOLIS   MOCLDY    24  20  84 S5        30.06F WCI  18

$$
MIZ043>046-050>051-056>058-064>065-071>073-077>080-111200-
SOUTHWEST LOWER MICHIGAN

CITY           SKY/WX    TMP DP  RH WIND       PRES   REMARKS
BATTLE CREEK   CLOUDY    27  21  78 CALM      30.00R
BENTON HARBOR  CLOUDY    30  21  69 S5        30.00R WCI  25
COLDWATER*     CLOUDY    27  23  84 S3        30.00R
HILLSDALE*     CLOUDY    27  21  80 SE3       29.96F
HOLLAND        CLOUDY    26  19  74 SE7       29.98F WCI  18
GRAND RAPIDS   CLOUDY    24  21  88 E6        29.99S WCI  17
KALAMAZOO      CLOUDY    28  22  78 SE3       30.00R
STURGIS*       CLOUDY    26  22  85 SW3       29.99S
THREE RIVERS*  CLOUDY    29  23  79 SW5       30.00R WCI  23

$$
OHZ001>008-015>018-024>025-111200-
NORTHWEST OHIO

CITY           SKY/WX    TMP DP  RH WIND       PRES   REMARKS
DEFIANCE       CLOUDY    27  21  78 S3        30.03F
FINDLAY        MOCLDY    23  18  81 S5        30.03F WCI  17
TOLEDO EXPRESS CLOUDY    24  22  91 SE3       30.02F
TOLEDO METCALF CLOUDY    23  19  85 E3        30.05F
LIMA           MOCLDY    25  20  81 S5        30.03F WCI  19

$$
AND FOR LAKE MICHIGAN COASTAL AND OPEN LAKE BUOY OBSERVATIONS

STATION/POSITION TEMP    WIND        PRES    VSBY  WAVE
                 AIR SEA DIR/SP/G                  HT/PER
                 (F)     (DEG/KT/KT) (MB)    (MI)  (FT/S)
CALUMET HARBOR    27     190/  4/  5 1015.9R
MICHIGAN CITY     27     190/ 10/ 12   N/A
BURNS HARBOR      28     210/  5/  9 1016.9R
SAINT JOSEPH      32     240/  7/ 10 1015.9

$$
&&




USA.gov is the U.S. government's official web portal to all federal, state and local government web resources and services.